TimePST,TemperatureF,Dew PointF,Humidity,Sea Level PressureIn,VisibilityMPH,Wind Direction,Wind SpeedMPH,Gust SpeedMPH,PrecipitationIn,Events,Conditions,WindDirDegrees,DateUTC
12:53 AM,51.1,45.0,80,30.48,10.0,South,9.2,-,N/A,,Overcast,190,2014-01-13 08:53:00
1:53 AM,50.0,45.0,83,30.51,7.0,SSW,10.4,-,0.00,,Overcast,200,2014-01-13 09:53:00
2:53 AM,50.0,46.0,86,30.52,9.0,SSW,15.0,-,0.02,Rain,Light Rain,210,2014-01-13 10:53:00
3:53 AM,48.9,45.0,86,30.54,10.0,SW,11.5,21.9,0.01,,Overcast,220,2014-01-13 11:53:00
4:53 AM,48.9,45.0,86,30.54,10.0,SSW,11.5,-,0.00,,Overcast,200,2014-01-13 12:53:00
5:53 AM,50.0,44.1,80,30.55,10.0,SSW,11.5,-,N/A,,Overcast,210,2014-01-13 13:53:00
6:53 AM,48.9,44.1,83,30.57,8.0,SSW,10.4,-,N/A,,Overcast,210,2014-01-13 14:53:00
7:53 AM,48.0,44.1,86,30.58,10.0,SW,8.1,-,0.00,,Mostly Cloudy,220,2014-01-13 15:53:00
8:53 AM,48.9,44.1,83,30.60,10.0,West,6.9,-,N/A,,Overcast,260,2014-01-13 16:53:00
9:53 AM,51.1,44.1,77,30.59,10.0,West,11.5,17.3,N/A,,Mostly Cloudy,260,2014-01-13 17:53:00
10:53 AM,52.0,44.1,74,30.60,10.0,WSW,15.0,-,N/A,,Mostly Cloudy,250,2014-01-13 18:53:00
11:53 AM,53.1,44.1,71,30.59,10.0,WSW,11.5,-,N/A,,Mostly Cloudy,240,2014-01-13 19:53:00
12:53 PM,54.0,44.1,69,30.58,10.0,SW,9.2,-,N/A,,Overcast,230,2014-01-13 20:53:00
1:24 PM,54.0,44.1,69,30.58,10.0,SW,9.2,-,N/A,,Overcast,230,2014-01-13 21:24:00
1:53 PM,54.0,44.1,69,30.58,10.0,SW,6.9,-,N/A,,Overcast,220,2014-01-13 21:53:00
2:53 PM,54.0,44.1,69,30.60,10.0,SW,8.1,-,N/A,,Overcast,220,2014-01-13 22:53:00
3:53 PM,53.1,44.1,71,30.61,10.0,SSW,10.4,-,N/A,,Overcast,210,2014-01-13 23:53:00
4:53 PM,52.0,46.0,80,30.63,10.0,Calm,Calm,-,0.00,,Overcast,0,2014-01-14 00:53:00
5:00 PM,52.0,46.0,80,30.63,10.0,Calm,Calm,-,N/A,,Overcast,0,2014-01-14 01:00:00
5:08 PM,51.1,46.0,83,30.63,10.0,Calm,Calm,-,N/A,,Overcast,0,2014-01-14 01:08:00
5:53 PM,52.0,45.0,77,30.63,10.0,SSW,5.8,-,N/A,,Overcast,210,2014-01-14 01:53:00
6:42 PM,52.0,45.0,77,30.65,10.0,SSW,4.6,-,N/A,,Overcast,210,2014-01-14 02:42:00
6:53 PM,52.0,45.0,77,30.65,10.0,SSW,5.8,-,N/A,,Overcast,200,2014-01-14 02:53:00
7:53 PM,52.0,44.1,74,30.66,10.0,Calm,Calm,-,N/A,,Overcast,0,2014-01-14 03:53:00
8:53 PM,50.0,44.1,80,30.66,10.0,ENE,3.5,-,N/A,,Overcast,70,2014-01-14 04:53:00
9:53 PM,48.0,43.0,83,30.67,10.0,ESE,4.6,-,N/A,,Mostly Cloudy,110,2014-01-14 05:53:00
10:53 PM,46.0,42.1,86,30.68,10.0,Calm,Calm,-,N/A,,Overcast,0,2014-01-14 06:53:00
11:53 PM,46.0,43.0,89,30.66,10.0,Calm,Calm,-,N/A,,Scattered Clouds,0,2014-01-14 07:53:00